• In Portugal
  • List of Countries
  • For 7 days
  • Water Temperature
  • Satellite Maps
  • Weather Map
  • Weather Widgets
  • user-avatar
    Login

    Hourly Weather Basejn

    Today, 18 June, Monday

    Time Temperature Precipitation Wind Pressure Humidity
    00:00 +29°C° 0 mm 4 mps 751 mmHg 90%
    01:00 +29°C° 0 mm 4 mps 751 mmHg 90%
    02:00 +29°C° 0 mm 4 mps 750 mmHg 90%
    03:00 +29°C° 0 mm 4 mps 750 mmHg 90%
    04:00 +29°C° 0.3 mm 4 mps 750 mmHg 89%
    05:00 +29°C° 0.3 mm 4 mps 751 mmHg 89%
    06:00 +30°C° 0 mm 4 mps 751 mmHg 88%
    07:00 +30°C° 3.3 mm 4 mps 751 mmHg 86%
    08:00 +30°C° 3.3 mm 4 mps 751 mmHg 85%
    09:00 +30°C° 3.3 mm 4 mps 751 mmHg 84%
    10:00 +30°C° 0.7 mm 4 mps 751 mmHg 83%
    11:00 +30°C° 0.7 mm 4 mps 751 mmHg 83%
    12:00 +34°C° 0 mm 5 mps 751 mmHg 70%
    13:00 +34°C° 0.1 mm 5 mps 751 mmHg 69%
    14:00 +34°C° 0.1 mm 5 mps 750 mmHg 67%
    15:00 +34°C° 0.1 mm 5 mps 750 mmHg 66%
    16:00 +33°C° 0.1 mm 5 mps 750 mmHg 70%
    17:00 +33°C° 0.1 mm 4 mps 750 mmHg 73%
    18:00 +31°C° 0 mm 3 mps 750 mmHg 78%
    19:00 +30°C° 0 mm 3 mps 750 mmHg 79%
    20:00 +30°C° 0 mm 3 mps 751 mmHg 81%
    21:00 +30°C° 0 mm 4 mps 751 mmHg 82%
    22:00 +30°C° 0 mm 3 mps 751 mmHg 83%
    23:00 +30°C° 0 mm 3 mps 751 mmHg 84%

    Tomorrow, 19 June, Tuesday

    Time Temperature Precipitation Wind Pressure Humidity
    00:00 +29°C° 0 mm 3 mps 751 mmHg 85%
    01:00 +29°C° 0 mm 3 mps 751 mmHg 87%
    02:00 +29°C° 0 mm 3 mps 750 mmHg 88%
    03:00 +29°C° 0 mm 2 mps 750 mmHg 90%
    04:00 +29°C° 0.3 mm 2 mps 750 mmHg 90%
    05:00 +29°C° 0.3 mm 2 mps 750 mmHg 90%
    06:00 +29°C° 0.3 mm 2 mps 750 mmHg 91%
    07:00 +30°C° 1.2 mm 2 mps 751 mmHg 87%
    08:00 +30°C° 1.2 mm 2 mps 751 mmHg 84%
    09:00 +31°C° 1.2 mm 2 mps 752 mmHg 81%
    10:00 +31°C° 1.2 mm 3 mps 752 mmHg 79%
    11:00 +31°C° 1.2 mm 3 mps 752 mmHg 77%
    12:00 +31°C° 1.2 mm 3 mps 751 mmHg 75%
    13:00 +33°C° 0.2 mm 4 mps 751 mmHg 72%
    14:00 +33°C° 0.2 mm 4 mps 751 mmHg 69%
    15:00 +34°C° 0.2 mm 4 mps 750 mmHg 66%
    16:00 +33°C° 0.2 mm 4 mps 750 mmHg 70%
    17:00 +32°C° 0.2 mm 4 mps 750 mmHg 73%
    18:00 +32°C° 0.2 mm 4 mps 750 mmHg 77%
    19:00 +30°C° 0 mm 4 mps 751 mmHg 79%
    20:00 +30°C° 0 mm 3 mps 751 mmHg 81%
    21:00 +29°C° 0 mm 3 mps 752 mmHg 83%
    22:00 +29°C° 0 mm 3 mps 752 mmHg 84%
    23:00 +29°C° 0 mm 3 mps 752 mmHg 85%

    Day after tomorrow, 20 June, Wednesday

    Time Temperature Precipitation Wind Pressure Humidity
    00:00 +29°C° 0 mm 3 mps 752 mmHg 86%
    01:00 +29°C° 0.4 mm 3 mps 752 mmHg 88%
    02:00 +29°C° 0.4 mm 3 mps 751 mmHg 89%
    03:00 +28°C° 0.4 mm 3 mps 751 mmHg 91%
    04:00 +29°C° 1.5 mm 3 mps 751 mmHg 89%
    05:00 +29°C° 1.5 mm 3 mps 752 mmHg 88%
    06:00 +29°C° 1.5 mm 3 mps 752 mmHg 87%
    07:00 +30°C° 0.7 mm 3 mps 752 mmHg 83%
    08:00 +30°C° 0.7 mm 3 mps 753 mmHg 79%
    09:00 +31°C° 0.7 mm 3 mps 753 mmHg 75%
    10:00 +33°C° 0.8 mm 3 mps 753 mmHg 71%
    11:00 +33°C° 0.8 mm 3 mps 753 mmHg 68%
    12:00 +34°C° 0.8 mm 3 mps 753 mmHg 65%
    13:00 +34°C° 1 mm 4 mps 752 mmHg 66%
    14:00 +33°C° 1 mm 4 mps 752 mmHg 68%
    15:00 +33°C° 1 mm 4 mps 752 mmHg 69%
    16:00 +32°C° 0.3 mm 4 mps 752 mmHg 72%
    17:00 +32°C° 0.3 mm 4 mps 752 mmHg 75%
    18:00 +30°C° 0.3 mm 3 mps 752 mmHg 78%
    19:00 +29°C° 0 mm 3 mps 752 mmHg 80%
    20:00 +29°C° 0 mm 3 mps 753 mmHg 82%
    21:00 +29°C° 0 mm 3 mps 754 mmHg 83%
    22:00 +29°C° 0 mm 3 mps 754 mmHg 84%
    23:00 +28°C° 0 mm 3 mps 753 mmHg 85%

    21 June, Thursday

    Time Temperature Precipitation Wind Pressure Humidity
    00:00 +28°C° 0 mm 3 mps 753 mmHg 86%
    01:00 +28°C° 0.1 mm 2 mps 753 mmHg 87%
    02:00 +28°C° 0.1 mm 2 mps 753 mmHg 88%
    03:00 +28°C° 0.1 mm 2 mps 752 mmHg 89%
    04:00 +28°C° 0.2 mm 2 mps 753 mmHg 89%
    05:00 +28°C° 0.2 mm 2 mps 753 mmHg 89%
    06:00 +28°C° 0.2 mm 2 mps 753 mmHg 89%
    07:00 +29°C° 0.5 mm 2 mps 753 mmHg 84%
    08:00 +30°C° 0.5 mm 2 mps 754 mmHg 78%
    09:00 +31°C° 0.5 mm 3 mps 754 mmHg 73%
    10:00 +33°C° 0.7 mm 3 mps 754 mmHg 70%
    11:00 +33°C° 0.7 mm 3 mps 754 mmHg 67%
    12:00 +34°C° 0.7 mm 3 mps 754 mmHg 64%
    13:00 +34°C° 1 mm 4 mps 753 mmHg 65%
    14:00 +34°C° 1 mm 4 mps 752 mmHg 66%
    15:00 +34°C° 1 mm 4 mps 752 mmHg 67%
    16:00 +33°C° 0.5 mm 4 mps 752 mmHg 71%
    17:00 +31°C° 0.5 mm 3 mps 752 mmHg 75%
    18:00 +30°C° 0.5 mm 3 mps 752 mmHg 78%
    19:00 +30°C° 0.4 mm 3 mps 753 mmHg 80%
    20:00 +29°C° 0.4 mm 3 mps 753 mmHg 82%
    21:00 +29°C° 0.4 mm 3 mps 754 mmHg 83%
    22:00 +29°C° 0.1 mm 3 mps 753 mmHg 84%
    23:00 +28°C° 0.1 mm 3 mps 753 mmHg 85%

    22 June, Friday

    Time Temperature Precipitation Wind Pressure Humidity
    00:00 +28°C° 0.1 mm 2 mps 753 mmHg 85%
    01:00 +28°C° 0.1 mm 2 mps 753 mmHg 86%
    02:00 +28°C° 0.1 mm 2 mps 752 mmHg 87%
    03:00 +28°C° 0.1 mm 2 mps 752 mmHg 88%
    04:00 +28°C° 0.8 mm 2 mps 752 mmHg 88%
    05:00 +28°C° 0.8 mm 2 mps 753 mmHg 87%
    06:00 +28°C° 0.8 mm 2 mps 753 mmHg 87%
    07:00 +29°C° 0.4 mm 3 mps 754 mmHg 82%
    08:00 +30°C° 0.4 mm 3 mps 754 mmHg 78%
    09:00 +32°C° 0.4 mm 4 mps 755 mmHg 73%
    10:00 +32°C° 0.6 mm 4 mps 754 mmHg 71%
    11:00 +33°C° 0.6 mm 4 mps 754 mmHg 69%
    12:00 +33°C° 0.6 mm 5 mps 754 mmHg 66%
    13:00 +33°C° 0.5 mm 5 mps 753 mmHg 67%
    14:00 +33°C° 0.5 mm 5 mps 753 mmHg 68%
    15:00 +33°C° 0.5 mm 5 mps 752 mmHg 69%
    16:00 +32°C° 0.6 mm 4 mps 753 mmHg 73%
    17:00 +30°C° 0.6 mm 4 mps 753 mmHg 76%
    18:00 +29°C° 0.6 mm 4 mps 753 mmHg 80%
    19:00 +29°C° 0.9 mm 4 mps 754 mmHg 82%
    20:00 +29°C° 0.9 mm 4 mps 754 mmHg 84%
    21:00 +29°C° 0.9 mm 4 mps 755 mmHg 87%
    22:00 +28°C° 0.9 mm 4 mps 754 mmHg 87%
    23:00 +28°C° 0.9 mm 4 mps 754 mmHg 88%

    23 June, Saturday

    Time Temperature Precipitation Wind Pressure Humidity
    00:00 +28°C° 0.9 mm 4 mps 754 mmHg 88%
    01:00 +28°C° 0.9 mm 4 mps 753 mmHg 89%
    02:00 +28°C° 0.9 mm 3 mps 753 mmHg 89%
    03:00 +28°C° 0.9 mm 3 mps 752 mmHg 89%
    04:00 +28°C° 0.9 mm 3 mps 753 mmHg 90%
    05:00 +28°C° 0.9 mm 3 mps 753 mmHg 90%
    06:00 +28°C° 0.9 mm 3 mps 753 mmHg 90%
    07:00 +29°C° 1.8 mm 3 mps 754 mmHg 87%
    08:00 +29°C° 1.8 mm 4 mps 754 mmHg 84%
    09:00 +30°C° 1.8 mm 4 mps 755 mmHg 81%
    10:00 +30°C° 1.5 mm 4 mps 754 mmHg 81%
    11:00 +30°C° 1.5 mm 4 mps 754 mmHg 80%
    12:00 +30°C° 1.5 mm 4 mps 754 mmHg 79%
    13:00 +32°C° 0.8 mm 4 mps 753 mmHg 78%
    14:00 +32°C° 0.8 mm 4 mps 753 mmHg 77%
    15:00 +32°C° 0.8 mm 4 mps 752 mmHg 77%
    16:00 +30°C° 0.4 mm 4 mps 752 mmHg 79%
    17:00 +30°C° 0.4 mm 3 mps 753 mmHg 82%
    18:00 +29°C° 0.4 mm 3 mps 753 mmHg 85%
    19:00 +29°C° 1.1 mm 3 mps 753 mmHg 85%
    20:00 +29°C° 1.1 mm 3 mps 754 mmHg 86%
    21:00 +28°C° 1.1 mm 3 mps 754 mmHg 86%
    22:00 +28°C° 1.1 mm 3 mps 754 mmHg 87%
    23:00 +28°C° 1.1 mm 3 mps 753 mmHg 87%
    Show more